Location: Lomond
(50.3500°N, 112.6333°W)
Time: 17:59:22
(UTC+00:00)

BlueWalker 3 - Visible Passes

Search period start: 08 June 2023 00:00
Search period end: 18 June 2023 00:00
Orbit: 494 x 513 km, 53.2° (Epoch: 08 June)

Date Brightness Start Highest point End Pass type
(mag) Time Alt. Az. Time Alt. Az. Time Alt. Az.
08 Jun 1.9 05:34:18 10° WNW 05:38:11 84° NNE 05:41:42 12° ESE visible
08 Jun 3.0 07:13:05 10° W 07:16:22 28° SW 07:16:22 28° SW visible
09 Jun 1.9 05:13:52 10° WNW 05:17:44 85° NNE 05:21:32 11° ESE visible
09 Jun 3.0 06:52:39 10° W 06:55:59 28° SW 06:56:11 27° SSW visible
10 Jun 2.0 04:53:24 10° WNW 04:57:16 86° NNE 05:01:10 10° ESE visible
10 Jun 3.0 06:32:13 10° W 06:35:31 27° SW 06:36:04 26° SSW visible
11 Jun 2.0 04:32:56 10° WNW 04:36:48 87° NNE 04:40:42 10° ESE visible
11 Jun 3.1 06:11:46 10° W 06:15:03 26° SW 06:16:00 24° SSW visible
12 Jun 3.2 05:51:19 10° W 05:54:33 26° SW 05:55:59 21° S visible
13 Jun 3.3 05:30:50 10° W 05:34:03 25° SW 05:36:00 17° S visible
14 Jun 3.4 05:10:21 10° W 05:13:32 25° SW 05:16:03 14° S visible
15 Jun 3.5 04:49:51 10° W 04:53:01 24° SW 04:56:08 10° SSE visible
16 Jun 3.5 04:29:21 10° W 04:32:28 24° SW 04:35:37 10° SSE visible
